User: anonymous   Login
Location: Unspecified
(0.0000°N, 0.0000°E)
Time: 01:07:31
(UTC+00:00)
Language:

TBA - TO BE ASSIGNED - Orbit

View from above orbital plane
View from above orbital plane
View from above satellite
View from above satellite

Ground track
Ground track

The orbit is defined by the following mean orbital elements,

1 68868U          26144.99230991 +.00000000 +00000-0 +72759-3 0 00001
2 68868  51.8849 354.3395 0001431 219.6202 140.4681 15.38744475    08
Epoch (UTC): 24 May 2026 23:48:55
Eccentricity: 0.0001431
inclination: 51.8849°
perigee height: 449 km
apogee height: 451 km
right ascension of ascending node: 354.3395°
argument of perigee: 219.6202°
revolutions per day: 15.38744475
mean anomaly at epoch: 140.4681°

The dashed part of the orbit path shows where the satellite is in the earth's shadow,  

DLR